Time,TemperatureF,DewpointF,PressureIn,WindDirection,WindDirectionDegrees,WindSpeedMPH,WindSpeedGustMPH,Humidity,HourlyPrecipIn,Conditions,Clouds,dailyrainin,SoftwareType,DateUTC
2013-06-07 00:02:00,72.8,61.2,29.87,East,88,2.0,6.0,67,0.00,,SKC,0.00,VWS V14.01,2013-06-07 05:02:00,
2013-06-07 00:07:00,72.6,61.0,29.87,East,99,3.0,7.0,67,0.00,,SKC,0.00,VWS V14.01,2013-06-07 05:07:00,
2013-06-07 00:12:00,72.4,61.2,29.87,East,98,7.0,11.0,68,0.00,,SKC,0.00,VWS V14.01,2013-06-07 05:12:00,
2013-06-07 00:17:00,72.2,61.5,29.87,ESE,109,4.0,4.0,69,0.00,,SKC,0.00,VWS V14.01,2013-06-07 05:17:00,
2013-06-07 00:22:00,72.0,61.3,29.87,NE,55,5.0,5.0,69,0.00,,SKC,0.00,VWS V14.01,2013-06-07 05:22:00,
2013-06-07 00:27:00,71.8,61.5,29.88,East,84,5.0,5.0,70,0.00,,SKC,0.00,VWS V14.01,2013-06-07 05:27:00,
2013-06-07 00:32:00,71.6,61.3,29.88,ENE,59,0.0,2.0,70,0.00,,SKC,0.00,VWS V14.01,2013-06-07 05:32:00,
2013-06-07 00:37:00,71.5,61.6,29.87,ENE,71,5.0,7.0,71,0.00,,SKC,0.00,VWS V14.01,2013-06-07 05:37:00,
2013-06-07 00:42:00,71.3,61.4,29.87,ENE,76,2.0,6.0,71,0.00,,SKC,0.00,VWS V14.01,2013-06-07 05:42:00,
2013-06-07 00:47:00,71.3,61.8,29.88,East,101,1.0,5.0,72,0.00,,SKC,0.00,VWS V14.01,2013-06-07 05:47:00,
2013-06-07 00:52:00,71.2,61.7,29.88,NE,44,5.0,10.0,72,0.00,,SKC,0.00,VWS V14.01,2013-06-07 05:52:00,
2013-06-07 00:57:00,71.1,61.6,29.87,East,92,1.0,5.0,72,0.00,,SKC,0.00,VWS V14.01,2013-06-07 05:57:00,
2013-06-07 01:02:00,71.1,61.6,29.88,ESE,110,0.0,2.0,72,0.00,,SKC,0.00,VWS V14.01,2013-06-07 06:02:00,
2013-06-07 01:07:00,71.0,61.9,29.88,NE,44,2.0,4.0,73,0.00,,SKC,0.00,VWS V14.01,2013-06-07 06:07:00,
2013-06-07 01:12:00,71.0,61.9,29.88,ENE,69,2.0,4.0,73,0.00,,SKC,0.00,VWS V14.01,2013-06-07 06:12:00,
2013-06-07 01:17:00,70.9,61.8,29.88,East,79,5.0,6.0,73,0.00,,SKC,0.00,VWS V14.01,2013-06-07 06:17:00,
2013-06-07 01:22:00,70.8,61.7,29.87,NNE,28,3.0,5.0,73,0.00,,SKC,0.00,VWS V14.01,2013-06-07 06:22:00,
2013-06-07 01:27:00,70.7,62.0,29.87,ENE,68,3.0,7.0,74,0.00,,SKC,0.00,VWS V14.01,2013-06-07 06:27:00,
2013-06-07 01:32:00,70.5,61.8,29.86,East,86,4.0,5.0,74,0.00,,SKC,0.00,VWS V14.01,2013-06-07 06:32:00,
2013-06-07 01:37:00,70.2,61.5,29.86,East,81,2.0,6.0,74,0.00,,SKC,0.00,VWS V14.01,2013-06-07 06:37:00,
2013-06-07 01:42:00,70.0,61.7,29.87,ENE,76,1.0,6.0,75,0.00,,SKC,0.00,VWS V14.01,2013-06-07 06:42:00,
2013-06-07 01:47:00,69.7,61.4,29.87,ENE,65,2.0,3.0,75,0.00,,SKC,0.00,VWS V14.01,2013-06-07 06:47:00,
2013-06-07 01:52:00,69.5,61.6,29.87,ENE,78,6.0,6.0,76,0.00,,SKC,0.00,VWS V14.01,2013-06-07 06:52:00,
2013-06-07 01:57:00,69.4,61.5,29.87,ENE,70,2.0,3.0,76,0.00,,SKC,0.00,VWS V14.01,2013-06-07 06:57:00,
2013-06-07 02:02:00,69.3,61.4,29.88,ESE,102,1.0,2.0,76,0.00,,SKC,0.00,VWS V14.01,2013-06-07 07:02:00,
2013-06-07 02:07:00,69.2,61.3,29.87,East,91,1.0,2.0,76,0.00,,SKC,0.00,VWS V14.01,2013-06-07 07:07:00,
2013-06-07 02:12:00,69.1,61.2,29.87,ENE,78,0.0,2.0,76,0.00,,SKC,0.00,VWS V14.01,2013-06-07 07:12:00,
2013-06-07 02:17:00,69.1,61.2,29.87,NE,49,4.0,5.0,76,0.00,,SKC,0.00,VWS V14.01,2013-06-07 07:17:00,
2013-06-07 02:22:00,69.0,61.1,29.86,NE,51,1.0,6.0,76,0.00,,SKC,0.00,VWS V14.01,2013-06-07 07:22:00,
2013-06-07 02:27:00,68.9,61.0,29.86,NE,49,0.0,2.0,76,0.00,,SKC,0.00,VWS V14.01,2013-06-07 07:27:00,
2013-06-07 02:32:00,68.8,60.9,29.87,NE,53,0.0,0.0,76,0.00,,SKC,0.00,VWS V14.01,2013-06-07 07:32:00,
2013-06-07 02:37:00,68.7,60.8,29.87,NE,53,0.0,1.0,76,0.00,,SKC,0.00,VWS V14.01,2013-06-07 07:37:00,
2013-06-07 02:42:00,68.6,60.7,29.87,NE,53,0.0,0.0,76,0.00,,SKC,0.00,VWS V14.01,2013-06-07 07:42:00,
2013-06-07 02:47:00,68.6,60.7,29.87,NE,53,0.0,1.0,76,0.00,,SKC,0.00,VWS V14.01,2013-06-07 07:47:00,
2013-06-07 02:52:00,68.7,60.8,29.88,NE,53,0.0,3.0,76,0.00,,SKC,0.00,VWS V14.01,2013-06-07 07:52:00,
2013-06-07 02:57:00,68.6,60.7,29.87,NE,53,3.0,3.0,76,0.00,,SKC,0.00,VWS V14.01,2013-06-07 07:57:00,
2013-06-07 03:02:00,68.6,61.1,29.87,NE,53,0.0,3.0,77,0.00,,SKC,0.00,VWS V14.01,2013-06-07 08:02:00,
2013-06-07 03:07:00,68.5,61.0,29.87,NE,52,3.0,3.0,77,0.00,,SKC,0.00,VWS V14.01,2013-06-07 08:07:00,
2013-06-07 03:12:00,68.5,61.0,29.87,NE,51,5.0,5.0,77,0.00,,SKC,0.00,VWS V14.01,2013-06-07 08:12:00,
2013-06-07 03:17:00,68.4,60.9,29.87,NE,53,5.0,5.0,77,0.00,,SKC,0.00,VWS V14.01,2013-06-07 08:17:00,
2013-06-07 03:22:00,68.4,60.9,29.87,NE,55,3.0,5.0,77,0.00,,SKC,0.00,VWS V14.01,2013-06-07 08:22:00,
2013-06-07 03:27:00,68.2,60.7,29.86,NE,55,4.0,6.0,77,0.00,,SKC,0.00,VWS V14.01,2013-06-07 08:27:00,
2013-06-07 03:32:00,68.0,60.5,29.86,NE,56,4.0,6.0,77,0.00,,SKC,0.00,VWS V14.01,2013-06-07 08:32:00,
2013-06-07 03:37:00,67.8,60.7,29.86,NE,37,3.0,5.0,78,0.00,,SKC,0.00,VWS V14.01,2013-06-07 08:37:00,
2013-06-07 03:42:00,67.6,60.5,29.86,NE,42,3.0,3.0,78,0.00,,SKC,0.00,VWS V14.01,2013-06-07 08:42:00,
2013-06-07 03:47:00,67.4,60.7,29.86,ENE,57,4.0,4.0,79,0.00,,SKC,0.00,VWS V14.01,2013-06-07 08:47:00,
2013-06-07 03:52:00,67.2,60.5,29.86,NE,50,0.0,2.0,79,0.00,,SKC,0.00,VWS V14.01,2013-06-07 08:52:00,
2013-06-07 03:57:00,67.1,60.7,29.86,NE,51,0.0,3.0,80,0.00,,SKC,0.00,VWS V14.01,2013-06-07 08:57:00,
2013-06-07 04:02:00,66.9,60.5,29.86,NE,47,3.0,3.0,80,0.00,,SKC,0.00,VWS V14.01,2013-06-07 09:02:00,
2013-06-07 04:07:00,66.7,60.3,29.86,NE,44,1.0,3.0,80,0.00,,SKC,0.00,VWS V14.01,2013-06-07 09:07:00,
2013-06-07 04:12:00,66.6,60.6,29.86,NE,45,1.0,2.0,81,0.00,,SKC,0.00,VWS V14.01,2013-06-07 09:12:00,
2013-06-07 04:17:00,66.5,60.5,29.86,NE,44,1.0,3.0,81,0.00,,SKC,0.00,VWS V14.01,2013-06-07 09:17:00,
2013-06-07 04:22:00,66.4,60.4,29.86,NE,44,0.0,0.0,81,0.00,,SKC,0.00,VWS V14.01,2013-06-07 09:22:00,
2013-06-07 04:27:00,66.4,60.4,29.86,NE,46,1.0,2.0,81,0.00,,SKC,0.00,VWS V14.01,2013-06-07 09:27:00,
2013-06-07 04:32:00,66.3,60.7,29.86,NE,46,1.0,2.0,82,0.00,,SKC,0.00,VWS V14.01,2013-06-07 09:32:00,
2013-06-07 04:37:00,66.3,60.7,29.86,NE,49,0.0,0.0,82,0.00,,SKC,0.00,VWS V14.01,2013-06-07 09:37:00,
2013-06-07 04:42:00,66.2,60.5,29.86,NE,49,0.0,0.0,82,0.00,,SKC,0.00,VWS V14.01,2013-06-07 09:42:00,
2013-06-07 04:47:00,66.0,60.3,29.86,NE,48,0.0,1.0,82,0.00,,SKC,0.00,VWS V14.01,2013-06-07 09:47:00,
2013-06-07 04:52:00,65.9,60.3,29.85,NE,45,2.0,2.0,82,0.00,,SKC,0.00,VWS V14.01,2013-06-07 09:52:00,
2013-06-07 04:57:00,65.8,60.5,29.85,NE,38,4.0,4.0,83,0.00,,SKC,0.00,VWS V14.01,2013-06-07 09:57:00,
2013-06-07 05:02:00,65.7,60.4,29.85,NE,42,0.0,2.0,83,0.00,,SKC,0.00,VWS V14.01,2013-06-07 10:02:00,
2013-06-07 05:07:00,65.6,60.3,29.85,NE,42,1.0,2.0,83,0.00,,SKC,0.00,VWS V14.01,2013-06-07 10:07:00,
2013-06-07 05:12:00,65.5,60.2,29.85,NE,40,1.0,1.0,83,0.00,,SKC,0.00,VWS V14.01,2013-06-07 10:12:00,
2013-06-07 05:17:00,65.4,60.1,29.85,NNE,29,1.0,3.0,83,0.00,,SKC,0.00,VWS V14.01,2013-06-07 10:17:00,
2013-06-07 05:22:00,65.3,60.3,29.86,NE,36,1.0,1.0,84,0.00,,SKC,0.00,VWS V14.01,2013-06-07 10:22:00,
2013-06-07 05:27:00,65.2,60.2,29.86,NE,36,0.0,0.0,84,0.00,,SKC,0.00,VWS V14.01,2013-06-07 10:27:00,
2013-06-07 05:32:00,65.1,60.2,29.86,NE,36,0.0,0.0,84,0.00,,SKC,0.00,VWS V14.01,2013-06-07 10:32:00,
2013-06-07 05:37:00,65.1,60.2,29.87,NE,36,0.0,1.0,84,0.00,,SKC,0.00,VWS V14.01,2013-06-07 10:37:00,
2013-06-07 05:42:00,65.0,60.0,29.87,NE,36,0.0,2.0,84,0.00,,SKC,0.00,VWS V14.01,2013-06-07 10:42:00,
2013-06-07 05:47:00,65.0,60.0,29.86,NE,44,1.0,2.0,84,0.00,,SKC,0.00,VWS V14.01,2013-06-07 10:47:00,
2013-06-07 05:52:00,64.8,59.9,29.86,NE,45,0.0,0.0,84,0.00,,SKC,0.00,VWS V14.01,2013-06-07 10:52:00,
2013-06-07 05:57:00,64.7,59.8,29.86,NE,45,0.0,0.0,84,0.00,,SKC,0.00,VWS V14.01,2013-06-07 10:57:00,
2013-06-07 06:02:00,64.6,59.7,29.86,NE,45,0.0,0.0,84,0.00,,SKC,0.00,VWS V14.01,2013-06-07 11:02:00,
2013-06-07 06:07:00,64.4,59.5,29.86,NE,45,0.0,0.0,84,0.00,,SKC,0.00,VWS V14.01,2013-06-07 11:07:00,
2013-06-07 06:12:00,64.4,59.8,29.86,NE,45,0.0,1.0,85,0.00,,SKC,0.00,VWS V14.01,2013-06-07 11:12:00,
2013-06-07 06:17:00,64.3,59.7,29.86,NE,45,0.0,0.0,85,0.00,,SKC,0.00,VWS V14.01,2013-06-07 11:17:00,
2013-06-07 06:22:00,64.2,59.6,29.86,NE,45,0.0,2.0,85,0.00,,SKC,0.00,VWS V14.01,2013-06-07 11:22:00,
2013-06-07 06:27:00,64.1,59.8,29.86,NE,41,0.0,2.0,86,0.00,,SKC,0.00,VWS V14.01,2013-06-07 11:27:00,
2013-06-07 06:32:00,64.1,59.8,29.86,NE,51,2.0,3.0,86,0.00,,SKC,0.00,VWS V14.01,2013-06-07 11:32:00,
2013-06-07 06:37:00,64.2,59.9,29.86,NE,47,4.0,4.0,86,0.00,,SKC,0.00,VWS V14.01,2013-06-07 11:37:00,
2013-06-07 06:42:00,64.3,60.0,29.86,ENE,68,6.0,6.0,86,0.00,,SKC,0.00,VWS V14.01,2013-06-07 11:42:00,
2013-06-07 06:47:00,64.4,60.1,29.86,ENE,59,5.0,7.0,86,0.00,,SKC,0.00,VWS V14.01,2013-06-07 11:47:00,
2013-06-07 06:52:00,64.6,60.3,29.86,NE,41,2.0,3.0,86,0.00,,SKC,0.00,VWS V14.01,2013-06-07 11:52:00,
2013-06-07 06:57:00,64.7,60.4,29.87,NE,41,0.0,4.0,86,0.00,,SKC,0.00,VWS V14.01,2013-06-07 11:57:00,
2013-06-07 07:02:00,64.8,60.5,29.87,NE,45,1.0,6.0,86,0.00,,SKC,0.00,VWS V14.01,2013-06-07 12:02:00,
2013-06-07 07:07:00,65.0,60.7,29.88,NE,48,2.0,4.0,86,0.00,,SKC,0.00,VWS V14.01,2013-06-07 12:07:00,
2013-06-07 07:12:00,65.3,61.0,29.87,NE,38,3.0,11.0,86,0.00,,SKC,0.00,VWS V14.01,2013-06-07 12:12:00,
2013-06-07 07:17:00,65.4,61.1,29.87,ENE,68,6.0,11.0,86,0.00,,SKC,0.00,VWS V14.01,2013-06-07 12:17:00,
2013-06-07 07:22:00,65.5,61.2,29.87,ENE,57,6.0,11.0,86,0.00,,SKC,0.00,VWS V14.01,2013-06-07 12:22:00,
2013-06-07 07:27:00,65.6,61.3,29.86,NE,53,3.0,5.0,86,0.00,,SKC,0.00,VWS V14.01,2013-06-07 12:27:00,
2013-06-07 07:32:00,65.8,61.5,29.86,East,92,8.0,12.0,86,0.00,,SKC,0.00,VWS V14.01,2013-06-07 12:32:00,
2013-06-07 07:37:00,65.9,61.3,29.87,ENE,65,5.0,6.0,85,0.00,,SKC,0.00,VWS V14.01,2013-06-07 12:37:00,
2013-06-07 07:42:00,66.1,61.5,29.88,NE,49,5.0,7.0,85,0.00,,SKC,0.00,VWS V14.01,2013-06-07 12:42:00,
2013-06-07 07:47:00,66.1,61.5,29.88,NE,34,3.0,6.0,85,0.00,,SKC,0.00,VWS V14.01,2013-06-07 12:47:00,
2013-06-07 07:52:00,66.2,61.6,29.89,NNE,27,5.0,6.0,85,0.00,,SKC,0.00,VWS V14.01,2013-06-07 12:52:00,
2013-06-07 07:57:00,66.3,61.3,29.89,NE,53,5.0,13.0,84,0.00,,SKC,0.00,VWS V14.01,2013-06-07 12:57:00,
2013-06-07 08:02:00,66.5,61.5,29.89,ENE,70,1.0,4.0,84,0.00,,SKC,0.00,VWS V14.01,2013-06-07 13:02:00,
2013-06-07 08:07:00,66.7,61.4,29.89,NE,52,6.0,11.0,83,0.00,,SKC,0.00,VWS V14.01,2013-06-07 13:07:00,
2013-06-07 08:12:00,66.9,61.2,29.89,ENE,63,7.0,7.0,82,0.00,,SKC,0.00,VWS V14.01,2013-06-07 13:12:00,
2013-06-07 08:17:00,66.8,61.1,29.90,NNE,33,5.0,6.0,82,0.00,,SKC,0.00,VWS V14.01,2013-06-07 13:17:00,
2013-06-07 08:22:00,66.8,61.1,29.90,ENE,57,4.0,6.0,82,0.00,,SKC,0.00,VWS V14.01,2013-06-07 13:22:00,
2013-06-07 08:27:00,66.9,61.2,29.91,NNE,32,6.0,8.0,82,0.00,,SKC,0.00,VWS V14.01,2013-06-07 13:27:00,
2013-06-07 08:32:00,67.0,61.0,29.91,NE,52,3.0,3.0,81,0.00,,SKC,0.00,VWS V14.01,2013-06-07 13:32:00,
2013-06-07 08:37:00,67.0,61.0,29.91,ENE,65,3.0,9.0,81,0.00,,SKC,0.00,VWS V14.01,2013-06-07 13:37:00,
2013-06-07 08:42:00,67.0,60.6,29.92,NE,48,4.0,6.0,80,0.00,,SKC,0.00,VWS V14.01,2013-06-07 13:42:00,
2013-06-07 08:47:00,67.0,61.0,29.92,NE,51,2.0,3.0,81,0.00,,SKC,0.00,VWS V14.01,2013-06-07 13:47:00,
2013-06-07 08:52:00,67.3,60.9,29.92,NNE,21,2.0,5.0,80,0.00,,SKC,0.00,VWS V14.01,2013-06-07 13:52:00,
2013-06-07 08:57:00,67.2,60.1,29.93,NNE,29,5.0,9.0,78,0.00,,SKC,0.00,VWS V14.01,2013-06-07 13:57:00,
2013-06-07 09:02:00,67.1,60.0,29.94,NNE,16,4.0,7.0,78,0.00,,SKC,0.00,VWS V14.01,2013-06-07 14:02:00,
2013-06-07 09:07:00,67.1,60.0,29.95,NNE,18,4.0,6.0,78,0.00,,SKC,0.00,VWS V14.01,2013-06-07 14:07:00,
2013-06-07 09:12:00,67.1,60.0,29.95,NE,38,5.0,6.0,78,0.00,,SKC,0.00,VWS V14.01,2013-06-07 14:12:00,
2013-06-07 09:17:00,67.0,60.3,29.96,NNE,15,4.0,4.0,79,0.00,,SKC,0.00,VWS V14.01,2013-06-07 14:17:00,
2013-06-07 09:22:00,67.0,60.3,29.95,NNE,27,6.0,6.0,79,0.00,,SKC,0.00,VWS V14.01,2013-06-07 14:22:00,
2013-06-07 09:27:00,67.1,60.0,29.96,North,10,5.0,6.0,78,0.00,,SKC,0.00,VWS V14.01,2013-06-07 14:27:00,
2013-06-07 09:32:00,67.1,60.0,29.96,NNE,19,10.0,10.0,78,0.00,,SKC,0.00,VWS V14.01,2013-06-07 14:32:00,
2013-06-07 09:37:00,67.1,60.0,29.97,NNE,30,6.0,8.0,78,0.00,,SKC,0.00,VWS V14.01,2013-06-07 14:37:00,
2013-06-07 09:42:00,67.1,60.0,29.97,NNE,15,2.0,6.0,78,0.00,,SKC,0.00,VWS V14.01,2013-06-07 14:42:00,
2013-06-07 09:47:00,67.2,60.5,29.97,NNE,32,6.0,9.0,79,0.00,,SKC,0.00,VWS V14.01,2013-06-07 14:47:00,
2013-06-07 09:52:00,67.2,60.5,29.97,North,355,7.0,11.0,79,0.00,,SKC,0.00,VWS V14.01,2013-06-07 14:52:00,
2013-06-07 09:57:00,67.1,60.4,29.96,NNW,338,4.0,7.0,79,0.00,,SKC,0.00,VWS V14.01,2013-06-07 14:57:00,
2013-06-07 10:02:00,67.0,60.3,29.96,NE,36,4.0,4.0,79,0.00,,SKC,0.00,VWS V14.01,2013-06-07 15:02:00,
2013-06-07 10:07:00,67.1,60.4,29.96,North,10,2.0,3.0,79,0.00,,SKC,0.00,VWS V14.01,2013-06-07 15:07:00,
2013-06-07 10:12:00,67.2,60.1,29.96,NNW,333,3.0,3.0,78,0.00,,SKC,0.00,VWS V14.01,2013-06-07 15:12:00,
2013-06-07 10:17:00,67.3,60.2,29.96,NNW,342,2.0,2.0,78,0.00,,SKC,0.00,VWS V14.01,2013-06-07 15:17:00,
2013-06-07 10:22:00,67.4,60.3,29.96,NNW,329,0.0,0.0,78,0.00,,SKC,0.00,VWS V14.01,2013-06-07 15:22:00,
2013-06-07 10:27:00,67.4,60.0,29.96,NW,323,6.0,6.0,77,0.00,,SKC,0.00,VWS V14.01,2013-06-07 15:27:00,
2013-06-07 10:32:00,67.3,59.8,29.95,North,11,0.0,0.0,77,0.00,,SKC,0.00,VWS V14.01,2013-06-07 15:32:00,
2013-06-07 10:37:00,67.3,60.2,29.95,North,10,2.0,2.0,78,0.00,,SKC,0.00,VWS V14.01,2013-06-07 15:37:00,
2013-06-07 10:42:00,67.3,60.2,29.94,North,350,0.0,1.0,78,0.00,,SKC,0.00,VWS V14.01,2013-06-07 15:42:00,
2013-06-07 10:47:00,67.3,59.8,29.93,North,355,0.0,1.0,77,0.00,,SKC,0.00,VWS V14.01,2013-06-07 15:47:00,
2013-06-07 10:52:00,67.3,59.8,29.93,North,5,7.0,7.0,77,0.00,,SKC,0.00,VWS V14.01,2013-06-07 15:52:00,
2013-06-07 10:57:00,67.3,59.8,29.92,NNE,17,5.0,5.0,77,0.00,,SKC,0.00,VWS V14.01,2013-06-07 15:57:00,
2013-06-07 11:02:00,67.4,60.0,29.92,NNE,17,2.0,2.0,77,0.00,,SKC,0.00,VWS V14.01,2013-06-07 16:02:00,
2013-06-07 11:07:00,67.5,60.0,29.91,NNE,33,2.0,4.0,77,0.00,,SKC,0.00,VWS V14.01,2013-06-07 16:07:00,
2013-06-07 11:12:00,67.6,60.1,29.92,NE,40,0.0,0.0,77,0.00,,SKC,0.00,VWS V14.01,2013-06-07 16:12:00,
2013-06-07 11:17:00,67.9,60.1,29.92,NNE,15,5.0,5.0,76,0.00,,SKC,0.00,VWS V14.01,2013-06-07 16:17:00,
2013-06-07 11:22:00,68.0,60.2,29.91,NE,40,4.0,4.0,76,0.00,,SKC,0.00,VWS V14.01,2013-06-07 16:22:00,
2013-06-07 11:27:00,68.3,60.5,29.91,ENE,65,1.0,2.0,76,0.00,,SKC,0.00,VWS V14.01,2013-06-07 16:27:00,
2013-06-07 11:32:00,68.4,60.5,29.91,ENE,71,3.0,5.0,76,0.00,,SKC,0.00,VWS V14.01,2013-06-07 16:32:00,
2013-06-07 11:37:00,68.6,60.7,29.91,ENE,71,4.0,8.0,76,0.00,,SKC,0.00,VWS V14.01,2013-06-07 16:37:00,
2013-06-07 11:42:00,68.8,60.6,29.91,NNE,22,4.0,4.0,75,0.00,,SKC,0.00,VWS V14.01,2013-06-07 16:42:00,
2013-06-07 11:47:00,69.0,60.8,29.90,ENE,57,5.0,7.0,75,0.00,,SKC,0.00,VWS V14.01,2013-06-07 16:47:00,
2013-06-07 11:52:00,69.3,60.7,29.90,East,83,10.0,11.0,74,0.00,,SKC,0.00,VWS V14.01,2013-06-07 16:52:00,
2013-06-07 11:57:00,69.5,60.5,29.90,NE,56,7.0,12.0,73,0.00,,SKC,0.00,VWS V14.01,2013-06-07 16:57:00,
2013-06-07 12:02:00,69.7,61.0,29.90,ENE,71,2.0,6.0,74,0.00,,SKC,0.00,VWS V14.01,2013-06-07 17:02:00,
2013-06-07 12:07:00,70.1,60.7,29.91,East,98,2.0,6.0,72,0.00,,SKC,0.00,VWS V14.01,2013-06-07 17:07:00,
2013-06-07 12:12:00,70.4,60.6,29.91,ENE,76,1.0,2.0,71,0.00,,SKC,0.00,VWS V14.01,2013-06-07 17:12:00,
2013-06-07 12:17:00,70.6,60.8,29.92,East,87,4.0,4.0,71,0.00,,SKC,0.00,VWS V14.01,2013-06-07 17:17:00,
2013-06-07 12:22:00,70.6,60.8,29.92,NE,52,0.0,0.0,71,0.00,,SKC,0.00,VWS V14.01,2013-06-07 17:22:00,
2013-06-07 12:27:00,70.7,60.5,29.93,North,9,1.0,4.0,70,0.00,,SKC,0.00,VWS V14.01,2013-06-07 17:27:00,
2013-06-07 12:32:00,70.7,60.5,29.94,North,11,0.0,0.0,70,0.00,,SKC,0.00,VWS V14.01,2013-06-07 17:32:00,
2013-06-07 12:37:00,70.9,60.6,29.94,North,11,0.0,0.0,70,0.00,,SKC,0.00,VWS V14.01,2013-06-07 17:37:00,
2013-06-07 12:42:00,71.1,60.4,29.94,West,270,0.0,0.0,69,0.00,,SKC,0.00,VWS V14.01,2013-06-07 17:42:00,
2013-06-07 12:47:00,71.3,60.6,29.94,West,271,1.0,1.0,69,0.00,,SKC,0.00,VWS V14.01,2013-06-07 17:47:00,
2013-06-07 12:52:00,71.5,60.8,29.95,West,273,2.0,4.0,69,0.00,,SKC,0.00,VWS V14.01,2013-06-07 17:52:00,
2013-06-07 12:57:00,71.4,59.9,29.95,West,274,0.0,2.0,67,0.00,,SKC,0.00,VWS V14.01,2013-06-07 17:57:00,
2013-06-07 13:02:00,71.5,60.0,29.95,West,269,0.0,4.0,67,0.00,,SKC,0.00,VWS V14.01,2013-06-07 18:02:00,
2013-06-07 13:07:00,71.7,59.8,29.96,SSW,209,3.0,4.0,66,0.00,,SKC,0.00,VWS V14.01,2013-06-07 18:07:00,
2013-06-07 13:12:00,71.8,60.3,29.96,SW,224,0.0,0.0,67,0.00,,SKC,0.00,VWS V14.01,2013-06-07 18:12:00,
2013-06-07 13:18:00,72.0,59.6,29.95,SW,223,1.0,4.0,65,0.00,,SKC,0.00,VWS V14.01,2013-06-07 18:18:00,
2013-06-07 13:23:00,72.2,59.8,29.95,SW,232,0.0,4.0,65,0.00,,SKC,0.00,VWS V14.01,2013-06-07 18:23:00,
2013-06-07 13:28:00,72.3,59.9,29.95,WSW,253,1.0,4.0,65,0.00,,SKC,0.00,VWS V14.01,2013-06-07 18:28:00,
2013-06-07 13:33:00,72.5,59.6,29.95,WSW,250,1.0,1.0,64,0.00,,SKC,0.00,VWS V14.01,2013-06-07 18:33:00,
2013-06-07 13:38:00,72.7,59.8,29.95,WSW,240,2.0,2.0,64,0.00,,SKC,0.00,VWS V14.01,2013-06-07 18:38:00,
2013-06-07 13:43:00,73.0,59.2,29.95,West,267,4.0,10.0,62,0.00,,SKC,0.00,VWS V14.01,2013-06-07 18:43:00,
2013-06-07 13:48:00,73.0,60.5,29.94,West,259,1.0,1.0,65,0.00,,SKC,0.00,VWS V14.01,2013-06-07 18:48:00,
2013-06-07 13:53:00,73.2,60.3,29.94,West,259,0.0,3.0,64,0.00,,SKC,0.00,VWS V14.01,2013-06-07 18:53:00,
2013-06-07 13:58:00,73.6,60.7,29.93,South,177,9.0,9.0,64,0.00,,SKC,0.00,VWS V14.01,2013-06-07 18:58:00,
2013-06-07 14:03:00,73.3,60.0,29.93,WSW,240,2.0,5.0,63,0.00,,SKC,0.00,VWS V14.01,2013-06-07 19:03:00,
2013-06-07 14:08:00,73.3,60.4,29.92,SW,231,0.0,3.0,64,0.00,,SKC,0.00,VWS V14.01,2013-06-07 19:08:00,
2013-06-07 14:13:00,73.4,60.0,29.92,WSW,241,1.0,7.0,63,0.00,,SKC,0.00,VWS V14.01,2013-06-07 19:13:00,
2013-06-07 14:18:00,73.4,59.6,29.92,SW,232,0.0,3.0,62,0.00,,SKC,0.00,VWS V14.01,2013-06-07 19:18:00,
2013-06-07 14:23:00,73.3,60.0,29.92,SW,232,0.0,1.0,63,0.00,,SKC,0.00,VWS V14.01,2013-06-07 19:23:00,
2013-06-07 14:28:00,73.1,59.3,29.92,SSW,192,0.0,3.0,62,0.00,,SKC,0.00,VWS V14.01,2013-06-07 19:28:00,
2013-06-07 14:33:00,73.2,59.0,29.91,SSE,155,3.0,4.0,61,0.00,,SKC,0.00,VWS V14.01,2013-06-07 19:33:00,
2013-06-07 14:38:00,73.1,57.9,29.91,SSE,161,2.0,4.0,59,0.00,,SKC,0.00,VWS V14.01,2013-06-07 19:38:00,
2013-06-07 14:43:00,73.1,58.4,29.91,SSE,161,0.0,1.0,60,0.00,,SKC,0.00,VWS V14.01,2013-06-07 19:43:00,
2013-06-07 14:48:00,73.4,58.7,29.91,South,169,0.0,3.0,60,0.00,,SKC,0.00,VWS V14.01,2013-06-07 19:48:00,
2013-06-07 14:54:00,73.5,59.2,29.91,South,169,0.0,1.0,61,0.00,,SKC,0.00,VWS V14.01,2013-06-07 19:54:00,
2013-06-07 14:59:00,73.6,59.3,29.90,SSE,159,0.0,1.0,61,0.00,,SKC,0.00,VWS V14.01,2013-06-07 19:59:00,
2013-06-07 15:04:00,73.8,59.5,29.90,SSE,155,1.0,1.0,61,0.00,,SKC,0.00,VWS V14.01,2013-06-07 20:04:00,
2013-06-07 15:09:00,74.1,60.3,29.90,ESE,119,2.0,4.0,62,0.00,,SKC,0.00,VWS V14.01,2013-06-07 20:09:00,
2013-06-07 15:14:00,74.2,59.4,29.90,ESE,117,2.0,3.0,60,0.00,,SKC,0.00,VWS V14.01,2013-06-07 20:14:00,
2013-06-07 15:19:00,74.3,60.0,29.90,East,100,0.0,1.0,61,0.00,,SKC,0.00,VWS V14.01,2013-06-07 20:19:00,
2013-06-07 15:24:00,74.4,59.6,29.90,ESE,112,3.0,3.0,60,0.00,,SKC,0.00,VWS V14.01,2013-06-07 20:24:00,
2013-06-07 15:29:00,74.4,59.6,29.90,ESE,107,1.0,2.0,60,0.00,,SKC,0.00,VWS V14.01,2013-06-07 20:29:00,
2013-06-07 15:34:00,74.4,59.6,29.90,SSE,149,1.0,3.0,60,0.00,,SKC,0.00,VWS V14.01,2013-06-07 20:34:00,
2013-06-07 15:39:00,74.4,60.1,29.90,SSE,153,3.0,4.0,61,0.00,,SKC,0.00,VWS V14.01,2013-06-07 20:39:00,
2013-06-07 15:44:00,74.3,60.0,29.90,SSW,200,6.0,10.0,61,0.00,,SKC,0.00,VWS V14.01,2013-06-07 20:44:00,
2013-06-07 15:50:00,74.3,60.0,29.90,SSE,163,1.0,1.0,61,0.00,,SKC,0.00,VWS V14.01,2013-06-07 20:50:00,
2013-06-07 15:55:00,74.5,60.2,29.90,SSE,163,3.0,4.0,61,0.00,,SKC,0.00,VWS V14.01,2013-06-07 20:55:00,
2013-06-07 16:00:00,74.6,60.3,29.90,SSE,164,2.0,3.0,61,0.00,,SKC,0.00,VWS V14.01,2013-06-07 21:00:00,
2013-06-07 16:05:00,74.6,59.3,29.89,South,179,4.0,6.0,59,0.00,,SKC,0.00,VWS V14.01,2013-06-07 21:05:00,
2013-06-07 16:10:00,74.6,59.3,29.89,South,174,1.0,1.0,59,0.00,,SKC,0.00,VWS V14.01,2013-06-07 21:10:00,
2013-06-07 16:15:00,74.8,59.0,29.89,South,178,4.0,4.0,58,0.00,,SKC,0.00,VWS V14.01,2013-06-07 21:15:00,
2013-06-07 16:20:00,74.9,59.6,29.88,South,174,4.0,4.0,59,0.00,,SKC,0.00,VWS V14.01,2013-06-07 21:20:00,
2013-06-07 16:25:00,74.9,59.6,29.88,South,177,0.0,0.0,59,0.00,,SKC,0.00,VWS V14.01,2013-06-07 21:25:00,
2013-06-07 16:30:00,75.2,59.9,29.88,SSE,148,0.0,2.0,59,0.00,,SKC,0.00,VWS V14.01,2013-06-07 21:30:00,
2013-06-07 16:35:00,75.3,59.0,29.87,South,172,2.0,8.0,57,0.00,,SKC,0.00,VWS V14.01,2013-06-07 21:35:00,
2013-06-07 16:40:00,75.6,59.3,29.88,ESE,119,1.0,5.0,57,0.00,,SKC,0.00,VWS V14.01,2013-06-07 21:40:00,
2013-06-07 16:45:00,75.6,59.3,29.87,SE,144,3.0,4.0,57,0.00,,SKC,0.00,VWS V14.01,2013-06-07 21:45:00,
2013-06-07 16:50:00,75.4,59.1,29.87,South,170,0.0,2.0,57,0.00,,SKC,0.00,VWS V14.01,2013-06-07 21:50:00,
2013-06-07 16:55:00,75.6,59.3,29.87,ESE,107,3.0,3.0,57,0.00,,SKC,0.00,VWS V14.01,2013-06-07 21:55:00,
2013-06-07 17:00:00,75.8,59.5,29.87,South,187,3.0,5.0,57,0.00,,SKC,0.00,VWS V14.01,2013-06-07 22:00:00,
2013-06-07 17:06:00,75.6,59.3,29.86,South,173,0.0,0.0,57,0.00,,SKC,0.00,VWS V14.01,2013-06-07 22:06:00,
2013-06-07 17:11:00,75.7,58.9,29.86,ESE,106,4.0,4.0,56,0.00,,SKC,0.00,VWS V14.01,2013-06-07 22:11:00,
2013-06-07 17:17:00,75.8,59.0,29.86,East,80,4.0,4.0,56,0.00,,SKC,0.00,VWS V14.01,2013-06-07 22:17:00,
2013-06-07 17:22:00,75.8,59.5,29.86,ENE,73,4.0,5.0,57,0.00,,SKC,0.00,VWS V14.01,2013-06-07 22:22:00,
2013-06-07 17:27:00,75.9,59.1,29.85,NE,50,1.0,4.0,56,0.00,,SKC,0.00,VWS V14.01,2013-06-07 22:27:00,
2013-06-07 17:32:00,76.0,59.7,29.85,NNE,25,0.0,1.0,57,0.00,,SKC,0.00,VWS V14.01,2013-06-07 22:32:00,
2013-06-07 17:37:00,76.2,59.9,29.85,ENE,70,2.0,2.0,57,0.00,,SKC,0.00,VWS V14.01,2013-06-07 22:37:00,
2013-06-07 17:42:00,76.2,59.4,29.85,ENE,67,0.0,3.0,56,0.00,,SKC,0.00,VWS V14.01,2013-06-07 22:42:00,
2013-06-07 17:47:00,76.3,59.5,29.85,East,90,1.0,2.0,56,0.00,,SKC,0.00,VWS V14.01,2013-06-07 22:47:00,
2013-06-07 17:52:00,76.4,59.1,29.85,East,86,0.0,3.0,55,0.00,,SKC,0.00,VWS V14.01,2013-06-07 22:52:00,
2013-06-07 17:58:00,76.4,59.1,29.85,East,86,0.0,0.0,55,0.00,,SKC,0.00,VWS V14.01,2013-06-07 22:58:00,
2013-06-07 18:03:00,76.6,59.8,29.84,East,83,2.0,2.0,56,0.00,,SKC,0.00,VWS V14.01,2013-06-07 23:03:00,
2013-06-07 18:08:00,76.7,59.8,29.84,East,83,2.0,3.0,56,0.00,,SKC,0.00,VWS V14.01,2013-06-07 23:08:00,
2013-06-07 18:13:00,76.4,59.6,29.84,East,83,0.0,0.0,56,0.00,,SKC,0.00,VWS V14.01,2013-06-07 23:13:00,
2013-06-07 18:18:00,76.5,60.2,29.84,SE,134,2.0,4.0,57,0.00,,SKC,0.00,VWS V14.01,2013-06-07 23:18:00,
2013-06-07 18:23:00,76.9,60.0,29.84,East,88,2.0,3.0,56,0.00,,SKC,0.00,VWS V14.01,2013-06-07 23:23:00,
2013-06-07 18:28:00,77.3,59.9,29.84,East,80,0.0,2.0,55,0.00,,SKC,0.00,VWS V14.01,2013-06-07 23:28:00,
2013-06-07 18:33:00,77.6,59.7,29.84,NE,52,2.0,2.0,54,0.00,,SKC,0.00,VWS V14.01,2013-06-07 23:33:00,
2013-06-07 18:38:00,77.9,60.5,29.84,ESE,103,2.0,4.0,55,0.00,,SKC,0.00,VWS V14.01,2013-06-07 23:38:00,
2013-06-07 18:43:00,77.9,59.9,29.83,East,97,3.0,3.0,54,0.00,,SKC,0.00,VWS V14.01,2013-06-07 23:43:00,
2013-06-07 18:48:00,77.9,59.9,29.83,East,90,2.0,4.0,54,0.00,,SKC,0.00,VWS V14.01,2013-06-07 23:48:00,
2013-06-07 18:53:00,77.9,59.9,29.83,East,100,2.0,3.0,54,0.00,,SKC,0.00,VWS V14.01,2013-06-07 23:53:00,
2013-06-07 18:58:00,77.9,60.5,29.83,ESE,119,3.0,4.0,55,0.00,,SKC,0.00,VWS V14.01,2013-06-07 23:58:00,
2013-06-07 19:03:00,77.9,59.9,29.83,SE,144,2.0,6.0,54,0.00,,SKC,0.00,VWS V14.01,2013-06-08 00:03:00,
2013-06-07 19:08:00,77.6,59.7,29.83,ESE,113,3.0,3.0,54,0.00,,SKC,0.00,VWS V14.01,2013-06-08 00:08:00,
2013-06-07 19:13:00,77.4,60.0,29.84,ESE,107,2.0,3.0,55,0.00,,SKC,0.00,VWS V14.01,2013-06-08 00:13:00,
2013-06-07 19:18:00,77.3,59.9,29.83,SE,132,3.0,4.0,55,0.00,,SKC,0.00,VWS V14.01,2013-06-08 00:18:00,
2013-06-07 19:23:00,77.2,60.3,29.83,ENE,66,5.0,5.0,56,0.00,,SKC,0.00,VWS V14.01,2013-06-08 00:23:00,
2013-06-07 19:29:00,76.9,59.5,29.83,ESE,106,2.0,3.0,55,0.00,,SKC,0.00,VWS V14.01,2013-06-08 00:29:00,
2013-06-07 19:34:00,76.7,59.8,29.83,ESE,123,1.0,4.0,56,0.00,,SKC,0.00,VWS V14.01,2013-06-08 00:34:00,
2013-06-07 19:39:00,76.4,59.6,29.83,ESE,108,3.0,4.0,56,0.00,,SKC,0.00,VWS V14.01,2013-06-08 00:39:00,
2013-06-07 19:44:00,76.0,59.7,29.84,SE,140,1.0,5.0,57,0.00,,SKC,0.00,VWS V14.01,2013-06-08 00:44:00,
2013-06-07 19:49:00,75.8,60.0,29.84,SSE,148,2.0,4.0,58,0.00,,SKC,0.00,VWS V14.01,2013-06-08 00:49:00,
2013-06-07 19:54:00,75.5,60.2,29.84,SE,136,1.0,3.0,59,0.00,,SKC,0.00,VWS V14.01,2013-06-08 00:54:00,
2013-06-07 19:59:00,75.2,59.9,29.84,SE,136,0.0,1.0,59,0.00,,SKC,0.00,VWS V14.01,2013-06-08 00:59:00,
2013-06-07 20:04:00,74.8,59.5,29.84,SE,138,0.0,5.0,59,0.00,,SKC,0.00,VWS V14.01,2013-06-08 01:04:00,
2013-06-07 20:09:00,74.5,59.7,29.84,SE,138,0.0,0.0,60,0.00,,SKC,0.00,VWS V14.01,2013-06-08 01:09:00,
2013-06-07 20:14:00,74.1,59.8,29.84,SE,138,1.0,3.0,61,0.00,,SKC,0.00,VWS V14.01,2013-06-08 01:14:00,
2013-06-07 20:19:00,73.8,59.5,29.84,SE,138,1.0,2.0,61,0.00,,SKC,0.00,VWS V14.01,2013-06-08 01:19:00,
2013-06-07 20:24:00,73.5,59.2,29.85,SE,138,0.0,2.0,61,0.00,,SKC,0.00,VWS V14.01,2013-06-08 01:24:00,
2013-06-07 20:29:00,73.2,59.4,29.85,SE,138,0.0,1.0,62,0.00,,SKC,0.00,VWS V14.01,2013-06-08 01:29:00,
2013-06-07 20:34:00,72.8,59.0,29.84,SE,138,1.0,1.0,62,0.00,,SKC,0.00,VWS V14.01,2013-06-08 01:34:00,
2013-06-07 20:39:00,72.6,59.3,29.84,SE,138,0.0,1.0,63,0.00,,SKC,0.00,VWS V14.01,2013-06-08 01:39:00,
2013-06-07 20:44:00,72.4,59.1,29.84,SE,138,0.0,0.0,63,0.00,,SKC,0.00,VWS V14.01,2013-06-08 01:44:00,
2013-06-07 20:49:00,72.1,58.8,29.85,SE,138,0.0,0.0,63,0.00,,SKC,0.00,VWS V14.01,2013-06-08 01:49:00,
2013-06-07 20:54:00,71.7,58.9,29.84,SE,138,0.0,0.0,64,0.00,,SKC,0.00,VWS V14.01,2013-06-08 01:54:00,
2013-06-07 20:59:00,71.3,58.9,29.84,SE,138,0.0,0.0,65,0.00,,SKC,0.00,VWS V14.01,2013-06-08 01:59:00,
2013-06-07 21:04:00,71.0,58.7,29.84,SE,138,0.0,0.0,65,0.00,,SKC,0.00,VWS V14.01,2013-06-08 02:04:00,
2013-06-07 21:09:00,70.7,58.8,29.84,SE,138,0.0,0.0,66,0.00,,SKC,0.00,VWS V14.01,2013-06-08 02:09:00,
2013-06-07 21:15:00,70.3,58.4,29.85,SE,138,0.0,0.0,66,0.00,,SKC,0.00,VWS V14.01,2013-06-08 02:15:00,
2013-06-07 21:20:00,69.9,58.5,29.84,SE,138,0.0,0.0,67,0.00,,SKC,0.00,VWS V14.01,2013-06-08 02:20:00,
2013-06-07 21:25:00,69.4,58.4,29.85,SE,138,0.0,0.0,68,0.00,,SKC,0.00,VWS V14.01,2013-06-08 02:25:00,
2013-06-07 21:30:00,69.1,58.5,29.85,SE,138,0.0,0.0,69,0.00,,SKC,0.00,VWS V14.01,2013-06-08 02:30:00,
2013-06-07 21:35:00,68.6,58.4,29.85,SE,138,0.0,0.0,70,0.00,,SKC,0.00,VWS V14.01,2013-06-08 02:35:00,
2013-06-07 21:40:00,68.4,58.6,29.85,SE,138,0.0,0.0,71,0.00,,SKC,0.00,VWS V14.01,2013-06-08 02:40:00,
2013-06-07 21:45:00,68.2,58.5,29.86,SE,138,0.0,0.0,71,0.00,,SKC,0.00,VWS V14.01,2013-06-08 02:45:00,
2013-06-07 21:50:00,68.1,58.3,29.86,SE,138,0.0,0.0,71,0.00,,SKC,0.00,VWS V14.01,2013-06-08 02:50:00,
2013-06-07 21:55:00,68.0,57.9,29.86,SE,138,0.0,0.0,70,0.00,,SKC,0.00,VWS V14.01,2013-06-08 02:55:00,
2013-06-07 22:00:00,67.9,57.8,29.86,SE,138,0.0,0.0,70,0.00,,SKC,0.00,VWS V14.01,2013-06-08 03:00:00,
2013-06-07 22:05:00,67.8,57.7,29.86,SE,138,0.0,0.0,70,0.00,,SKC,0.00,VWS V14.01,2013-06-08 03:05:00,
2013-06-07 22:10:00,67.7,57.2,29.86,SE,138,0.0,0.0,69,0.00,,SKC,0.00,VWS V14.01,2013-06-08 03:10:00,
2013-06-07 22:15:00,67.6,57.1,29.87,SE,138,0.0,0.0,69,0.00,,SKC,0.00,VWS V14.01,2013-06-08 03:15:00,
2013-06-07 22:20:00,67.4,56.9,29.87,SE,138,0.0,1.0,69,0.00,,SKC,0.00,VWS V14.01,2013-06-08 03:20:00,
2013-06-07 22:25:00,67.2,56.7,29.87,SE,138,0.0,0.0,69,0.00,,SKC,0.00,VWS V14.01,2013-06-08 03:25:00,
2013-06-07 22:30:00,66.8,56.7,29.87,SE,138,0.0,0.0,70,0.00,,SKC,0.00,VWS V14.01,2013-06-08 03:30:00,
2013-06-07 22:35:00,66.1,56.8,29.88,SE,138,0.0,0.0,72,0.00,,SKC,0.00,VWS V14.01,2013-06-08 03:35:00,
2013-06-07 22:40:00,65.7,56.8,29.88,SE,138,0.0,0.0,73,0.00,,SKC,0.00,VWS V14.01,2013-06-08 03:40:00,
2013-06-07 22:45:00,65.2,57.1,29.88,SE,138,0.0,0.0,75,0.00,,SKC,0.00,VWS V14.01,2013-06-08 03:45:00,
2013-06-07 22:50:00,64.9,57.2,29.88,SE,138,0.0,0.0,76,0.00,,SKC,0.00,VWS V14.01,2013-06-08 03:50:00,
2013-06-07 22:55:00,64.8,57.1,29.88,SE,138,0.0,0.0,76,0.00,,SKC,0.00,VWS V14.01,2013-06-08 03:55:00,
2013-06-07 23:00:00,65.0,56.9,29.88,SE,138,0.0,0.0,75,0.00,,SKC,0.00,VWS V14.01,2013-06-08 04:00:00,
2013-06-07 23:01:00,65.0,56.9,29.89,SE,138,0.0,0.0,75,0.00,,SKC,0.00,VWS V14.01,2013-06-08 04:01:00,
2013-06-07 23:02:00,65.0,56.9,29.89,SE,138,0.0,0.0,75,0.00,,SKC,0.00,VWS V14.01,2013-06-08 04:02:00,
2013-06-07 23:07:00,65.2,57.1,29.89,SE,138,0.0,0.0,75,0.00,,SKC,0.00,VWS V14.01,2013-06-08 04:07:00,
2013-06-07 23:12:00,65.5,57.0,29.89,SE,138,0.0,0.0,74,0.00,,SKC,0.00,VWS V14.01,2013-06-08 04:12:00,
2013-06-07 23:17:00,65.6,56.7,29.89,SE,138,0.0,0.0,73,0.00,,SKC,0.00,VWS V14.01,2013-06-08 04:17:00,
2013-06-07 23:22:00,65.7,56.4,29.89,SE,138,0.0,0.0,72,0.00,,SKC,0.00,VWS V14.01,2013-06-08 04:22:00,
2013-06-07 23:27:00,65.7,56.4,29.89,SE,138,0.0,0.0,72,0.00,,SKC,0.00,VWS V14.01,2013-06-08 04:27:00,
2013-06-07 23:32:00,65.6,56.0,29.89,SE,138,0.0,0.0,71,0.00,,SKC,0.00,VWS V14.01,2013-06-08 04:32:00,
2013-06-07 23:37:00,65.4,55.8,29.89,SE,138,0.0,0.0,71,0.00,,SKC,0.00,VWS V14.01,2013-06-08 04:37:00,
2013-06-07 23:42:00,65.3,55.7,29.89,SE,138,0.0,0.0,71,0.00,,SKC,0.00,VWS V14.01,2013-06-08 04:42:00,
2013-06-07 23:47:00,65.2,55.6,29.89,SE,138,0.0,0.0,71,0.00,,SKC,0.00,VWS V14.01,2013-06-08 04:47:00,
2013-06-07 23:52:00,65.1,55.5,29.89,SE,138,0.0,0.0,71,0.00,,SKC,0.00,VWS V14.01,2013-06-08 04:52:00,
2013-06-07 23:57:00,65.1,55.5,29.89,SE,138,0.0,0.0,71,0.00,,SKC,0.00,VWS V14.01,2013-06-08 04:57:00,